TITAN 3C TRANSTAGE DEB, 26780

Orbit data source: Space-Track

TITAN 3C TRANSTAGE DEB, 26780 is space debris in HEO originally from a launch on Tue, 21 Dec 1965 UTC launched from the Air Force Eastern Test Range (AFETR). Debris objects in space refer to the collection of defunct objects orbiting the Earth. Examples of debris include non-operational satellites, rocket bodies, and fragments generated from explosions, collisions, or faulty payload assembly.

Loading next visibility...
Identifier
26780, 1965-108AY
Orbit
HEO
Country
Flag of USUS
Related business
Manufacturer
Unknown
Mission
Spacecraft
Bus & Motor
Unknown
Mass
Unknown
Launch date (UTC)
1965-12-21 (61 years ago)
Launch vehicle
Unknown
Launch site
Air Force Eastern Test Range (AFETR)
Object type
Payload
Rocket body
Debris
Shape & HBR
Unknown shape, 0.5 m
Radar Cross Section
Medium (>0.1 m² and <1 m²)

Expand to show TLE details & history
Last TLE update: 2 days ago

TLE from 2 days ago
0 TITAN 3C TRANSTAGE DEB
1 26780U 65108AY  26172.75497413  .00000006  00000-0  00000-0 0  9997
2 26780  26.2605 196.2651 6280961 144.9231   3.2476  2.58801723140601
Epoch: 2026-06-21T18:07Z
TLE epoch observation values (Epoch: 2026-06-21T18:07:09.764Z)
Latitude
7.4295°
Longitude
179.30191°
Altitude
2,128.061 km
Speed
8.714 km/s
True Right ascension
00h 04m 10s
True Declination
7° 23' 33"
Sunlit
Object was in daylight at epoch
Visualization orbit readout
Latitude
Unknown
Longitude
Unknown
Altitude
Unknown
Speed
Unknown
Apparent Right ascension
Unknown
Apparent Declination
Unknown
Sunlit
N/A
Visualization observer readout
Local Sidereal Time
16:40:15
Azimuth
Unknown
Elevation
Unknown
Doppler factor
Unknown
Orbital elements
Apogee altitude
30,110.794 km
Perigee altitude
1,956.983 km
Semi-major axis
22,412.025 km
Eccentricity
0.6281
Inclination
26.2605°
RAAN
196.2651°
Arg. of periapsis
144.9231°
True anomaly
18.03801°
Mean anomaly
3.2476°
Eccentric anomaly
8.67642°
Mean motion
0.64688 °/min
Orbital period
556.52 mins
BSTAR
0
Loading maneuver chart data...
Computing Atmospheric mass density...

Documentation

Showing up to 5 results
|